LTU81C EDDS-LIRF

Flight info

Callsign LTU81C
Flight time 0h 41m
Altitude 31000
Route ROTWE5B/25 ROTWE Y126 TUBLO N850 NATOR/N0472F410 DCT TRA DCT RIPUS DCT GERSA DCT SOSON DCT ODINA DCT EKPAL DCT TINKU DCT XIBIL
Aircraft MD11/H-SDE1E2E3FGHIJ2J3J4J5M1RWXY/LB1D1

Departure

Time 2026-02-18 14:22
Airport Stuttgart Airport (EDDS)

Arrival

Time 2026-02-18 15:03
Airport Rome–Fiumicino Leonardo da Vinci International Airport (LIRF)
Time Latitude Longitude Altitude Speed Heading
2026-02-18 13:54 48.68823 9.19786 1293 ft 0 kts 164°
2026-02-18 14:15 48.68781 9.19815 1293 ft 7 kts 147°
2026-02-18 14:15 48.68763 9.19900 1293 ft 12 kts 98°
2026-02-18 14:16 48.68718 9.19971 1293 ft 1 kts 166°
2026-02-18 14:16 48.68716 9.19972 1293 ft 0 kts 166°
2026-02-18 14:16 48.68709 9.19975 1293 ft 5 kts 162°
2026-02-18 14:17 48.68672 9.19991 1293 ft 1 kts 164°
2026-02-18 14:17 48.68670 9.19992 1293 ft 0 kts 164°
2026-02-18 14:20 48.68669 9.19993 1293 ft 0 kts 164°
2026-02-18 14:21 48.68596 9.20093 1293 ft 3 kts 108°
2026-02-18 14:21 48.68604 9.20177 1293 ft 7 kts 73°
2026-02-18 14:21 48.68620 9.20261 1293 ft 14 kts 73°
2026-02-18 14:22 48.68742 9.20907 1293 ft 118 kts 74°
2026-02-18 14:22 48.69034 9.22476 1618 ft 172 kts 75°
2026-02-18 14:22 48.69363 9.24260 2740 ft 183 kts 76°
2026-02-18 14:22 48.69741 9.26125 3698 ft 197 kts 75°
2026-02-18 14:23 48.70158 9.28120 4113 ft 189 kts 74°
2026-02-18 14:23 48.70577 9.30030 5086 ft 196 kts 74°
2026-02-18 14:23 48.71012 9.32056 5974 ft 206 kts 73°
2026-02-18 14:23 48.71246 9.34285 6366 ft 233 kts 98°
2026-02-18 14:24 48.70613 9.36629 6727 ft 249 kts 131°
2026-02-18 14:24 48.69276 9.38255 7675 ft 249 kts 159°
2026-02-18 14:24 48.67601 9.38735 8709 ft 246 kts 189°
2026-02-18 14:24 48.65971 9.38033 9774 ft 245 kts 208°
2026-02-18 14:25 48.63133 9.35078 11212 ft 270 kts 239°
2026-02-18 14:25 48.62388 9.32303 11389 ft 303 kts 258°
2026-02-18 14:25 48.61993 9.29021 11803 ft 327 kts 263°
2026-02-18 14:26 48.61603 9.25609 12870 ft 331 kts 260°
2026-02-18 14:26 48.61092 9.22192 13981 ft 334 kts 258°
2026-02-18 14:26 48.60525 9.18761 14976 ft 339 kts 258°
2026-02-18 14:26 48.59926 9.15281 15952 ft 344 kts 258°
2026-02-18 14:27 48.59316 9.11799 16912 ft 350 kts 258°
2026-02-18 14:27 48.58686 9.08230 17832 ft 355 kts 258°
2026-02-18 14:27 48.58042 9.04601 18704 ft 360 kts 258°
2026-02-18 14:27 48.57389 9.00940 19621 ft 361 kts 258°
2026-02-18 14:28 48.56733 8.97268 20568 ft 362 kts 259°
2026-02-18 14:28 48.56073 8.93585 21493 ft 364 kts 259°
2026-02-18 14:28 48.55403 8.89833 21925 ft 374 kts 259°
2026-02-18 14:28 48.54726 8.86073 22629 ft 368 kts 259°
2026-02-18 14:29 48.52324 8.79163 24233 ft 390 kts 233°
2026-02-18 14:29 48.50204 8.76488 24857 ft 405 kts 223°
2026-02-18 14:29 48.47850 8.74066 25501 ft 411 kts 223°
2026-02-18 14:30 48.45494 8.71543 25875 ft 417 kts 225°
2026-02-18 14:30 48.43214 8.68845 26255 ft 415 kts 227°
2026-02-18 14:30 48.41032 8.66033 26635 ft 413 kts 229°
2026-02-18 14:30 48.38896 8.63116 26842 ft 416 kts 230°
2026-02-18 14:31 48.36801 8.60160 26896 ft 420 kts 231°
2026-02-18 14:31 48.34689 8.57142 27303 ft 416 kts 231°
2026-02-18 14:31 48.32595 8.54141 28080 ft 417 kts 231°
2026-02-18 14:31 48.30499 8.51135 28909 ft 416 kts 231°
2026-02-18 14:32 48.28402 8.48134 29651 ft 418 kts 232°
2026-02-18 14:32 48.26282 8.45098 30058 ft 421 kts 232°
2026-02-18 14:32 48.24167 8.42084 30428 ft 416 kts 232°
2026-02-18 14:32 48.22060 8.39153 30778 ft 414 kts 230°
2026-02-18 14:33 48.17123 8.34553 30875 ft 425 kts 209°
2026-02-18 14:33 48.14218 8.33497 30876 ft 436 kts 197°
2026-02-18 14:33 48.11139 8.33299 30865 ft 450 kts 186°
2026-02-18 14:34 48.07995 8.33805 30878 ft 458 kts 180°
2026-02-18 14:34 48.01724 8.35538 30880 ft 461 kts 178°
2026-02-18 14:35 47.95417 8.37296 30880 ft 459 kts 179°
2026-02-18 14:35 47.89123 8.38887 30876 ft 459 kts 179°
2026-02-18 14:36 47.82821 8.40412 30888 ft 459 kts 179°
2026-02-18 14:36 47.76517 8.41926 30884 ft 458 kts 179°
2026-02-18 14:37 47.54706 8.45818 30883 ft 458 kts 183°
2026-02-18 14:37 47.33662 8.48895 30889 ft 457 kts 183°
2026-02-18 14:38 47.04203 8.53182 30883 ft 456 kts 183°
2026-02-18 14:38 46.83022 8.56231 30912 ft 454 kts 183°
2026-02-18 14:39 46.47436 8.61320 30939 ft 452 kts 183°
2026-02-18 14:39 45.97886 8.73706 30880 ft 481 kts 151°
2026-02-18 14:40 45.54756 9.18896 30933 ft 481 kts 152°
2026-02-18 14:40 45.09895 9.60807 30947 ft 482 kts 152°
2026-02-18 14:41 44.41770 10.20645 30991 ft 471 kts 165°
2026-02-18 14:42 43.92288 10.45815 30952 ft 471 kts 164°
2026-02-18 14:42 43.43036 10.69563 30974 ft 467 kts 166°
2026-02-18 14:43 43.10776 10.84451 30963 ft 465 kts 166°
2026-02-18 14:43 43.04638 10.87257 30976 ft 465 kts 166°
2026-02-18 14:44 42.98510 10.90054 30983 ft 464 kts 166°
2026-02-18 14:44 42.92367 10.92837 30901 ft 469 kts 166°
2026-02-18 14:44 42.89258 10.94241 30639 ft 472 kts 166°
2026-02-18 14:45 42.83051 10.97086 29630 ft 463 kts 163°
2026-02-18 14:45 42.80129 10.98958 28948 ft 465 kts 150°
2026-02-18 14:45 42.77631 11.01715 28266 ft 462 kts 135°
2026-02-18 14:46 42.75679 11.05156 27621 ft 458 kts 123°
2026-02-18 14:46 42.74062 11.08880 26970 ft 454 kts 119°
2026-02-18 14:46 42.72546 11.12625 26320 ft 450 kts 119°
2026-02-18 14:46 42.71042 11.16261 25684 ft 445 kts 120°
2026-02-18 14:47 42.69479 11.19872 25066 ft 441 kts 121°
2026-02-18 14:47 42.67889 11.23399 24438 ft 436 kts 122°
2026-02-18 14:47 42.66281 11.26876 23805 ft 432 kts 123°
2026-02-18 14:47 42.64666 11.30319 23129 ft 428 kts 123°
2026-02-18 14:48 42.63068 11.33705 22483 ft 424 kts 123°
2026-02-18 14:48 42.61481 11.37058 21851 ft 420 kts 123°
2026-02-18 14:48 42.59909 11.40371 21139 ft 412 kts 124°
2026-02-18 14:48 42.58077 11.43496 19032 ft 432 kts 136°
2026-02-18 14:49 42.53754 11.48945 15798 ft 419 kts 141°
2026-02-18 14:49 42.51580 11.51602 15019 ft 415 kts 140°
2026-02-18 14:49 42.49472 11.54259 14370 ft 412 kts 139°
2026-02-18 14:50 42.47409 11.56930 13798 ft 408 kts 138°
2026-02-18 14:50 42.45372 11.59613 13207 ft 404 kts 137°
2026-02-18 14:50 42.43372 11.62273 12649 ft 400 kts 137°
2026-02-18 14:50 42.41430 11.64863 12109 ft 396 kts 137°
2026-02-18 14:51 42.39458 11.67499 11603 ft 392 kts 137°
2026-02-18 14:51 42.37557 11.70038 11149 ft 385 kts 137°
2026-02-18 14:51 42.35655 11.72576 10887 ft 380 kts 137°
2026-02-18 14:51 42.33860 11.74973 10782 ft 343 kts 137°
2026-02-18 14:52 42.32260 11.77115 10657 ft 310 kts 138°
2026-02-18 14:52 42.30734 11.79145 10552 ft 304 kts 138°
2026-02-18 14:52 42.29224 11.81145 10441 ft 303 kts 138°
2026-02-18 14:52 42.27715 11.83141 10292 ft 302 kts 138°
2026-02-18 14:53 42.24728 11.87096 9435 ft 298 kts 138°
2026-02-18 14:53 42.23271 11.89026 8968 ft 294 kts 139°
2026-02-18 14:53 42.21822 11.90943 8529 ft 291 kts 138°
2026-02-18 14:54 42.20381 11.92850 8109 ft 288 kts 139°
2026-02-18 14:54 42.18950 11.94742 7641 ft 287 kts 139°
2026-02-18 14:54 42.17528 11.96620 7206 ft 285 kts 138°
2026-02-18 14:54 42.16130 11.98466 6962 ft 277 kts 137°
2026-02-18 14:55 42.14787 12.00241 6830 ft 263 kts 138°
2026-02-18 14:55 42.13517 12.01919 6718 ft 249 kts 138°
2026-02-18 14:55 42.12328 12.03498 6563 ft 238 kts 138°
2026-02-18 14:55 42.11192 12.05097 6243 ft 236 kts 136°
2026-02-18 14:56 42.10075 12.06716 5816 ft 236 kts 139°
2026-02-18 14:56 42.08982 12.08308 5421 ft 233 kts 136°
2026-02-18 14:56 42.07895 12.09903 5050 ft 230 kts 137°
2026-02-18 14:56 42.06822 12.11474 4701 ft 225 kts 137°
2026-02-18 14:57 42.04738 12.14525 3992 ft 216 kts 136°
2026-02-18 14:57 42.03775 12.15945 3664 ft 194 kts 138°
2026-02-18 14:57 42.02923 12.17204 3343 ft 171 kts 137°
2026-02-18 14:58 42.02118 12.18341 3087 ft 163 kts 145°
2026-02-18 14:58 42.01139 12.18998 3010 ft 155 kts 161°
2026-02-18 14:58 42.00132 12.19539 2808 ft 157 kts 161°
2026-02-18 14:58 41.99117 12.20058 2569 ft 154 kts 163°
2026-02-18 14:59 41.98101 12.20498 2489 ft 154 kts 163°
2026-02-18 14:59 41.97069 12.20930 2494 ft 154 kts 163°
2026-02-18 14:59 41.96049 12.21360 2478 ft 152 kts 164°
2026-02-18 14:59 41.95108 12.21759 2177 ft 134 kts 165°
2026-02-18 15:00 41.94238 12.22124 2041 ft 130 kts 165°
2026-02-18 15:00 41.93378 12.22477 1941 ft 131 kts 166°
2026-02-18 15:00 41.92481 12.22848 1871 ft 126 kts 165°
2026-02-18 15:00 41.91576 12.23244 1664 ft 144 kts 165°
2026-02-18 15:01 41.89809 12.24016 1304 ft 128 kts 166°
2026-02-18 15:01 41.88969 12.24374 1025 ft 132 kts 165°
2026-02-18 15:01 41.88052 12.24752 853 ft 140 kts 165°
2026-02-18 15:02 41.87146 12.25135 645 ft 134 kts 165°
2026-02-18 15:02 41.86283 12.25493 426 ft 130 kts 166°
2026-02-18 15:02 41.85396 12.25838 241 ft 135 kts 166°
2026-02-18 15:02 41.84484 12.26208 58 ft 139 kts 165°
2026-02-18 15:03 41.83005 12.26817 22 ft 80 kts 163°
2026-02-18 15:03 41.82551 12.27008 19 ft 54 kts 162°
2026-02-18 15:03 41.82300 12.27113 17 ft 32 kts 163°
2026-02-18 15:04 41.82120 12.27140 18 ft 24 kts 180°
2026-02-18 15:04 41.81966 12.27110 19 ft 22 kts 192°
2026-02-18 15:04 41.81846 12.27074 20 ft 16 kts 192°
2026-02-18 15:04 41.81743 12.27049 19 ft 12 kts 179°
2026-02-18 15:05 41.81532 12.27109 19 ft 17 kts 162°
2026-02-18 15:05 41.81421 12.27158 21 ft 17 kts 162°
2026-02-18 15:05 41.81309 12.27205 19 ft 17 kts 162°
2026-02-18 15:06 41.81195 12.27252 20 ft 19 kts 163°
2026-02-18 15:06 41.81077 12.27280 20 ft 9 kts 199°
2026-02-18 15:06 41.81029 12.27211 20 ft 5 kts 220°
2026-02-18 15:06 41.80958 12.27214 19 ft 18 kts 167°
2026-02-18 15:07 41.80829 12.27202 19 ft 18 kts 198°
2026-02-18 15:07 41.80771 12.27122 21 ft 10 kts 247°
2026-02-18 15:07 41.80690 12.27044 21 ft 16 kts 178°
2026-02-18 15:07 41.80606 12.27029 22 ft 5 kts 208°
2026-02-18 15:08 41.80570 12.26914 22 ft 22 kts 252°
2026-02-18 15:08 41.80516 12.26717 24 ft 22 kts 249°
2026-02-18 15:08 41.80463 12.26530 27 ft 21 kts 249°
2026-02-18 15:08 41.80412 12.26343 27 ft 22 kts 250°
2026-02-18 15:09 41.80233 12.26046 22 ft 20 kts 205°
2026-02-18 15:09 41.80109 12.25970 21 ft 20 kts 205°
2026-02-18 15:09 41.79984 12.25890 24 ft 20 kts 205°
2026-02-18 15:10 41.79858 12.25810 21 ft 20 kts 205°
2026-02-18 15:10 41.79792 12.25766 21 ft 6 kts 207°
2026-02-18 15:10 41.79765 12.25752 24 ft 2 kts 188°
2026-02-18 15:10 41.79726 12.25787 21 ft 7 kts 128°
2026-02-18 15:11 41.79712 12.25826 21 ft 0 kts 115°
2026-02-18 15:11 41.79711 12.25828 23 ft 0 kts 115°